User: anonymous   Login
Location: Unspecified
(0.0000°N, 0.0000°E)
Time: 23:48:51
(UTC+00:00)
Language:

Astrid - Orbit

View from above orbital plane
View from above orbital plane
View from above satellite
View from above satellite

Ground track
Ground track

The orbit data is extracted from the following two-line orbital elements,

1 23464U 95002B   17349.51752478  .00000058  00000-0  46142-4 0  9992
2 23464  82.9259 155.2854 0041750 135.2347 225.2189 13.72537483146438
Epoch (UTC): 15 December 2017 12:25:14
Eccentricity: 0.0041750
inclination: 82.9259°
perigee height: 960 km
apogee height: 1021 km
right ascension of ascending node: 155.2854°
argument of perigee: 135.2347°
revolutions per day: 13.72537483
mean anomaly at epoch: 225.2189°
orbit number at epoch: 14643

The dashed part of the orbit path shows where the satellite is in the earth's shadow,  

DLR